Regional Weather Roundup
Issued by NWS

Home | Current Version | Previous Version | Text Only | Print | Product List | Glossary On
Versions: 1 2 3 4 5 6 7 8 9 10 11 12 13 14 15 16 17 18 19 20 21 22 23 24 25 26 27 28 29 30 31 32 33 34 35 36 37 38 39 40 41 42 43 44 45 46 47 48 49 50
978
ASHW40 PHFO 221832
RWRHI

WEATHER ROUNDUP FOR HAWAII
NATIONAL WEATHER SERVICE HONOLULU HI
800 AM HST THU JUN 22 2017

THIS IS AN AUTOMATED REPORT THAT HAS NOT BEEN QUALITY CONTROLLED.

NOTE..."FAIR" INDICATES FEW OR NO CLOUDS BELOW 12,000 FEET WITH NO
SIGNIFICANT WEATHER AND/OR OBSTRUCTIONS TO VISIBILITY.

* - THESE SITES REPORT LIMITED FIELDS

HIZ001>004-221900-
KAUAI-NIIHAU-

CITY           SKY/WX    TMP DP  RH WIND       PRES   REMARKS
LIHUE APT      MOSUNNY   79  68  69 NE13      30.02R
PORT ALLEN*    NOT AVBL
POIPU*           N/A     79 N/A N/A NE7G13      N/A
PRINCEVILLE*     N/A     77 N/A N/A SE3         N/A
KOKOLE POINT*  NOT AVBL
MOLOAA DAIRY*    N/A     75  68  78 E3          N/A
WAIMEA HTS*    NOT AVBL
PUU OPAE*      NOT AVBL
PUU LUA*       NOT AVBL
MAKAHA RIDGE*    N/A     73  64  73 SW1         N/A
$$

HIZ005>011-221900-
OAHU-

CITY           SKY/WX    TMP DP  RH WIND       PRES   REMARKS
HONOLULU       MOSUNNY   78  65  63 NE7       29.98R
KALAELOA       SUNNY     80  66  62 NE8       29.99S
KANEOHE MCB    NOT AVBL
WHEELER FIELD  FAIR      76  67  75 CALM      29.99R
BELLOWS*         N/A    N/A N/A N/A NE13        N/A
KAHUKU*          N/A    N/A N/A N/A NE8G14      N/A
WHEELER*       NOT AVBL
WAIANAE HARBOR NOT AVBL
DILLINGHAM*      N/A     66  57  72 SW3         N/A
KAHUKU TRN*      N/A     79  72  78 W5G15       N/A
KAWAILOA*        N/A     72  66  83 E12G21      N/A
KII*             N/A     81  70  69 E13G21      N/A
MAKUA RANGE*     N/A     81  66  61 W6G12       N/A
OAHU FOREST NW NOT AVBL
SCHOFIELD BRK*   N/A     66  55  68 SW1         N/A
SCHOFIELD S*   NOT AVBL
WAIANAE VLY*   NOT AVBL
KUAOKALA*      NOT AVBL
HONOULIUULI*   NOT AVBL
MOKUOLOE IS*   NOT AVBL
PALEHUA*       NOT AVBL
WAIAWA PHB*    NOT AVBL
$$

HIZ012>013-221900-
MOLOKAI-

CITY           SKY/WX    TMP DP  RH WIND       PRES   REMARKS
MOLOKAI AIRPT  SUNNY     79  68  69 NE10G18   30.00R
KALAUPAPA      NOT AVBL
MAKAPULAPAI*     N/A     81  68  65 E12G17      N/A
MOLOKAI 1*     NOT AVBL
PUU ALII*        N/A     59  58  97 N2G9        N/A
$$

HIZ016-221900-
KAHOOLAWE-

CITY           SKY/WX    TMP DP  RH WIND       PRES   REMARKS
KAHOOLAWE*     NOT AVBL
HAKIOAWA*        N/A     75  63  66 MISG      30.41R
HONOKANAIA*      N/A     79  67  66 N7        29.91R
KANELOA*         N/A     75  66  73 N9        30.03R
KEALIALALO*    NOT AVBL
LUA MAKIKA*    NOT AVBL
$$

HIZ014>015-221900-
LANAI-

CITY           SKY/WX    TMP DP  RH WIND       PRES   REMARKS
LANAI CITY     FAIR      73  66  78 NE20G25   30.03S
LANAI 1*       NOT AVBL
$$

HIZ017>028-221900-
MAUI-

CITY           SKY/WX    TMP DP  RH WIND       PRES   REMARKS
KAHULUI        MOSUNNY   80  68  66 NE14      29.99R
KAPALUA-W MAUI MOSUNNY   77  66  69 NE12      30.00
HANA AIRPORT   PTSUNNY   81  70  69 CALM      30.03S
HANA*            N/A     77 N/A N/A W1          N/A
HALEAKALA SUMM   N/A     50  14  23 E24G36      N/A
MAALAEA BAY*     N/A     81 N/A N/A N16G23      N/A
HALEAKALA*     NOT AVBL
KAUPO GAP*     NOT AVBL
KULA 1*          N/A     53  38  57 E3          N/A
$$

HIZ023>026-221900-
BIG ISLAND OF HAWAII COAST AND LOWER SLOPES-

CITY           SKY/WX    TMP DP  RH WIND       PRES   REMARKS
KAILUA KONA    MOSUNNY   79  61  53 CALM      29.94R
HILO           LGT RAIN  71  69  93 W7        30.00R FOG
HONOKAA*         N/A     68 N/A N/A VRB1        N/A
KAWAIHAE MWT*    N/A     81 N/A N/A W3G9        N/A
KAWAIHAE*        N/A     79 N/A N/A NW2       29.95R
SOUTH POINT*     N/A     73 N/A N/A N12         N/A
UPOLU AIRPORT* NOT AVBL
KAMUELA*       CLEAR     70  61  73 NE16      30.08S
HAKALAU*         N/A     56  55  95 NE2         N/A
KALOKO-HONOKO*   N/A     82  64  54 SW5       29.95R
PALI 2*          N/A     72  57  60 N5G20       N/A
KEALAKOMO*       N/A     79  64  61 NE16G26     N/A
KAUPULEHU*     NOT AVBL
KAPAPALA*        N/A     73  64  72 NW1         N/A
LOWER KAHUKU*    N/A     59  52  77 N2          N/A
PUHE CS*         N/A     81  64  57 E2          N/A
PUHO CS*         N/A     82  64  53 E2          N/A
PTA KEAMUKU*   NOT AVBL
WAIKOLOA*      NOT AVBL
$$

HIZ027>028-221900-
BIG ISLAND OF HAWAII INTERIOR AND SUMMMITS-

CITY           SKY/WX    TMP DP  RH WIND       PRES   REMARKS
BRADSHAW FIELD MOSUNNY   61  42  50 CALM      30.29R
MK VISITOR CEN   N/A     57  23  26 SE13        N/A
MAUNA KEA*       N/A     50  -8   9 NE3         N/A
MAUNA LOA*       N/A     59 N/A N/A MISG        N/A
MAUNA LOA 1*   NOT AVBL
PTA KIPUKA*      N/A     72  55  56 S2          N/A
PTA RANGE 17*    N/A     68  52  56 E3G9        N/A
PTA WEST*        N/A     70  54  56 E8G14       N/A
NENE CABIN*      N/A     57  41  54 SE2         N/A
AHUMOA*        NOT AVBL
PTA PORTABLE*  NOT AVBL
PUU MALI*        N/A     55  55 100 NE16G23     N/A
$$

HIC003-221900-
NORTHWEST ISLANDS-

CITY           SKY/WX    TMP DP  RH WIND       PRES   REMARKS
MIDWAY ISLAND  CLOUDY    75  66  73 E18       30.12R
MIDWAY NOS*      N/A     75 N/A N/A MISG      30.10S
FRENCH FRIGATE NOT AVBL
$$

PHZ110>124-180-221900-
BUOY REPORTS

STATION/POSITION TIME  TEMP    WIND        PRES    WAVE   SWELL
                       AIR SEA DIR/SP/G            HT/PER HT/DIR
                 (UTC) (F)     (DEG/KT/KT) (MB)    (FT/S) (FT/D)
BUOY 51001       1810   78 80  100/ 10/ 14 1016.8
BUOY 51101       1750   78 80   80/ 12/ 14 1017.2R   5/15   5/160
BUOY 51100       NOT AVBL
BUOY 51002       1810   78 79   70/ 14/ 17 1014.0
BUOY 51003       1750   80 80   60/ 12/ 14 1014.1R   5/15   5/140
BUOY 51004       1750      79   70/ 10/ 12 1013.8R   6/15   7/150
BARBERS PT BUOY  NOT AVBL
WAIMEA BAY BUOY  1802      78                N/A     2/ 8   2/240
KAILUA BAY BUOY  1804      79                N/A     5/ 8   2/130
LANAI BUOY       NOT AVBL
BARBERS PT 2     NOT AVBL
PAUWELA MAUI     1809      79                N/A     5/ 8   2/110
HILO             1757      78                N/A     5/14   3/130
KANEOHE BAY BUOY 1755      79                N/A     4/ 7
HANALEI KAUAI    1752      80                N/A     4/ 8
KAHULUI HARBOR   1800   77 79   20/  8/  9 1015.7
HONOLULU HARBOR  1800   79 80   50/  4/ 10 1016.0
KILO NALU        NOT AVBL
HILO HARBOR      1800   71 77  270/  6/  8 1015.7
MOKUOLOE         1736   80 81   70/  8/ 10 1015.8R
NAWILIWILI       1800   78      50/ 11/ 14 1016.0
WHOTS BUOY       NOT AVBL
BUOY 51028       NOT AVBL
$$

......................KEY........................................
  SKY/WX - SKY CONDITIONS/PRESENT WEATHER
  TMP    - TEMPERATURE IN FAHRENHEIT
  DWPT   - DEWPOINT IN FAHRENHEIT
  RH     - RELATIVE HUMIDITY IN PERCENT
  WIND   - DIRECTION AND SPEED /MPH FOR ISLANDS...KTS FOR BUOYS/
  PRES   - MEAN SEA LEVEL PRESSURE IN INCHES OF HG
  VSB    - VISIBILITY IN MILES
  HX     - HEAT INDEX
  WCI    - WIND CHILL INDEX
  VRB    - VARIABLE WIND DIRECTION
  N/A    - NOT AVAILABLE




USA.gov is the U.S. government's official web portal to all federal, state and local government web resources and services.